SES-17

Last updated on Sun Oct 19 2025 00:02:51 GMT+0000 (Coordinated Universal Time)

1 49332U 21095A 25291.25504257 -.00000279 00000+0 00000+0 0 9994 2 49332 0.0129 324.4649 0001080 247.2279 200.0277 1.00270474 15424
UTC large
Height (km)
Speed (km/s)
/
Latitude / Longitude
Inclination (degrees)
Orbital Period (minutes)
Azimuth
Elevation
Range (km)
Doppler Factor

Next 0 passes for location: London (51.5072 / 0.1276)

Sorry there are no passes over London.